EAG5510 SKCL-SVMC

Flight info

Callsign EAG5510
Flight time 1h 17m
Altitude 35000
Route ULQ1K ULQ DCT RNG UW26 CUC UW1 ENPUT UG431 STB/N0414F230 W1 BOBAT BOBAT1
Aircraft A321/M-SDE3FGHIRWY/LB1

Departure

Time 2026-05-04 13:19
Airport Alfonso Bonilla Aragon International Airport (SKCL)

Arrival

Time 2026-05-04 14:37
Airport La Chinita International Airport (SVMC)
Time Latitude Longitude Altitude Speed Heading
2026-05-04 12:58 3.53563 -76.38617 3162 ft 0 kts 279°
2026-05-04 13:10 3.53561 -76.38602 3162 ft 4 kts 279°
2026-05-04 13:10 3.53557 -76.38575 3162 ft 4 kts 269°
2026-05-04 13:10 3.53561 -76.38550 3164 ft 4 kts 241°
2026-05-04 13:11 3.53577 -76.38533 3165 ft 3 kts 192°
2026-05-04 13:11 3.53581 -76.38532 3166 ft 0 kts 187°
2026-05-04 13:15 3.53531 -76.38541 3162 ft 12 kts 190°
2026-05-04 13:15 3.53454 -76.38555 3162 ft 10 kts 190°
2026-05-04 13:15 3.53389 -76.38556 3162 ft 8 kts 156°
2026-05-04 13:16 3.53354 -76.38517 3162 ft 7 kts 137°
2026-05-04 13:16 3.53279 -76.38512 3162 ft 15 kts 189°
2026-05-04 13:16 3.53182 -76.38529 3162 ft 13 kts 190°
2026-05-04 13:16 3.53096 -76.38545 3162 ft 12 kts 190°
2026-05-04 13:17 3.53021 -76.38557 3162 ft 10 kts 185°
2026-05-04 13:17 3.52963 -76.38534 3162 ft 8 kts 133°
2026-05-04 13:17 3.52954 -76.38485 3162 ft 7 kts 73°
2026-05-04 13:17 3.52983 -76.38442 3161 ft 8 kts 54°
2026-05-04 13:18 3.53020 -76.38401 3160 ft 8 kts 35°
2026-05-04 13:18 3.53069 -76.38384 3160 ft 7 kts 11°
2026-05-04 13:18 3.53166 -76.38367 3162 ft 38 kts
2026-05-04 13:18 3.53709 -76.38273 3163 ft 116 kts
2026-05-04 13:19 3.54717 -76.38101 3181 ft 174 kts 10°
2026-05-04 13:19 3.55995 -76.37902 3696 ft 191 kts
2026-05-04 13:19 3.57291 -76.37684 4534 ft 187 kts
2026-05-04 13:19 3.58571 -76.37457 4923 ft 191 kts
2026-05-04 13:20 3.59942 -76.37213 5047 ft 208 kts
2026-05-04 13:20 3.61412 -76.36953 5243 ft 219 kts
2026-05-04 13:20 3.62926 -76.36688 5582 ft 221 kts
2026-05-04 13:20 3.64438 -76.36365 5895 ft 224 kts 15°
2026-05-04 13:21 3.65978 -76.35908 6028 ft 236 kts 17°
2026-05-04 13:21 3.67561 -76.35405 6277 ft 240 kts 17°
2026-05-04 13:21 3.69173 -76.34888 6462 ft 251 kts 17°
2026-05-04 13:21 3.70916 -76.34332 6614 ft 274 kts 17°
2026-05-04 13:22 3.72766 -76.33746 7142 ft 282 kts 17°
2026-05-04 13:22 3.74650 -76.33149 7776 ft 286 kts 18°
2026-05-04 13:22 3.76555 -76.32548 8416 ft 288 kts 18°
2026-05-04 13:22 3.78479 -76.31943 9051 ft 291 kts 18°
2026-05-04 13:23 3.80420 -76.31335 9693 ft 294 kts 18°
2026-05-04 13:23 3.82394 -76.30715 10175 ft 303 kts 18°
2026-05-04 13:23 3.84479 -76.30062 10293 ft 324 kts 18°
2026-05-04 13:23 3.86695 -76.29370 10401 ft 344 kts 18°
2026-05-04 13:24 3.89042 -76.28637 10528 ft 362 kts 18°
2026-05-04 13:24 3.91488 -76.27875 10810 ft 372 kts 18°
2026-05-04 13:24 3.93973 -76.27098 11296 ft 377 kts 18°
2026-05-04 13:25 3.99022 -76.25519 12368 ft 383 kts 18°
2026-05-04 13:25 4.01572 -76.24724 12903 ft 386 kts 18°
2026-05-04 13:25 4.04151 -76.23920 13433 ft 389 kts 19°
2026-05-04 13:25 4.06748 -76.23107 13948 ft 392 kts 19°
2026-05-04 13:26 4.09353 -76.22267 14391 ft 395 kts 22°
2026-05-04 13:26 4.11894 -76.21203 14849 ft 397 kts 24°
2026-05-04 13:26 4.14441 -76.20118 15294 ft 399 kts 24°
2026-05-04 13:26 4.17003 -76.19028 15746 ft 401 kts 24°
2026-05-04 13:27 4.19582 -76.17930 16185 ft 404 kts 24°
2026-05-04 13:27 4.22176 -76.16827 16615 ft 406 kts 24°
2026-05-04 13:27 4.24782 -76.15720 17028 ft 408 kts 24°
2026-05-04 13:27 4.27407 -76.14605 17445 ft 410 kts 24°
2026-05-04 13:28 4.30009 -76.13498 17848 ft 413 kts 24°
2026-05-04 13:28 4.32658 -76.12369 18262 ft 415 kts 24°
2026-05-04 13:28 4.35322 -76.11234 18607 ft 417 kts 24°
2026-05-04 13:28 4.38000 -76.10095 18945 ft 419 kts 24°
2026-05-04 13:29 4.40689 -76.08950 19280 ft 421 kts 24°
2026-05-04 13:29 4.43396 -76.07800 19611 ft 424 kts 24°
2026-05-04 13:29 4.46115 -76.06644 19934 ft 426 kts 24°
2026-05-04 13:29 4.48851 -76.05482 20257 ft 428 kts 24°
2026-05-04 13:30 4.51593 -76.04317 20577 ft 430 kts 24°
2026-05-04 13:30 4.54352 -76.03142 20903 ft 432 kts 24°
2026-05-04 13:30 4.57122 -76.01961 21226 ft 434 kts 24°
2026-05-04 13:30 4.59906 -76.00777 21558 ft 435 kts 24°
2026-05-04 13:31 4.62706 -75.99586 21869 ft 438 kts 24°
2026-05-04 13:31 4.65513 -75.98393 22193 ft 440 kts 24°
2026-05-04 13:31 4.68334 -75.97193 22498 ft 442 kts 24°
2026-05-04 13:31 4.71169 -75.95986 22793 ft 444 kts 24°
2026-05-04 13:32 4.74018 -75.94774 23086 ft 446 kts 24°
2026-05-04 13:32 4.76881 -75.93555 23364 ft 448 kts 24°
2026-05-04 13:32 4.79753 -75.92331 23649 ft 450 kts 24°
2026-05-04 13:32 4.82636 -75.91100 23887 ft 452 kts 24°
2026-05-04 13:33 4.85538 -75.89859 24120 ft 454 kts 24°
2026-05-04 13:33 4.88446 -75.88617 24357 ft 455 kts 24°
2026-05-04 13:33 4.91369 -75.87372 24630 ft 457 kts 24°
2026-05-04 13:33 4.94303 -75.86123 24868 ft 459 kts 24°
2026-05-04 13:34 4.97246 -75.84868 25081 ft 461 kts 24°
2026-05-04 13:34 5.00204 -75.83606 25307 ft 462 kts 24°
2026-05-04 13:34 5.03174 -75.82342 25537 ft 464 kts 24°
2026-05-04 13:34 5.06148 -75.81077 25758 ft 466 kts 24°
2026-05-04 13:35 5.09141 -75.79805 25982 ft 468 kts 24°
2026-05-04 13:35 5.15153 -75.77242 26441 ft 471 kts 24°
2026-05-04 13:35 5.18173 -75.75954 26653 ft 472 kts 24°
2026-05-04 13:36 5.20175 -75.75099 26799 ft 474 kts 24°
2026-05-04 13:36 5.23214 -75.73801 27016 ft 475 kts 24°
2026-05-04 13:36 5.26263 -75.72499 27229 ft 477 kts 24°
2026-05-04 13:36 5.29321 -75.71194 27435 ft 479 kts 24°
2026-05-04 13:37 5.32391 -75.69888 27657 ft 480 kts 24°
2026-05-04 13:37 5.35475 -75.68576 27866 ft 482 kts 24°
2026-05-04 13:37 5.38569 -75.67255 28069 ft 483 kts 24°
2026-05-04 13:37 5.41660 -75.65936 28341 ft 483 kts 24°
2026-05-04 13:38 5.44755 -75.64616 28608 ft 483 kts 24°
2026-05-04 13:38 5.47845 -75.63298 28879 ft 482 kts 24°
2026-05-04 13:38 5.50932 -75.61979 29147 ft 482 kts 24°
2026-05-04 13:38 5.54014 -75.60659 29411 ft 482 kts 24°
2026-05-04 13:39 5.57096 -75.59340 29683 ft 481 kts 24°
2026-05-04 13:39 5.60180 -75.58024 29945 ft 481 kts 24°
2026-05-04 13:39 5.63263 -75.56710 30200 ft 481 kts 24°
2026-05-04 13:39 5.66340 -75.55397 30418 ft 481 kts 24°
2026-05-04 13:40 5.69419 -75.54079 30647 ft 481 kts 24°
2026-05-04 13:40 5.72495 -75.52762 30871 ft 480 kts 24°
2026-05-04 13:40 5.75572 -75.51444 31107 ft 480 kts 24°
2026-05-04 13:40 5.78641 -75.50132 31337 ft 479 kts 24°
2026-05-04 13:41 5.81711 -75.48824 31580 ft 479 kts 24°
2026-05-04 13:41 5.84772 -75.47519 31840 ft 478 kts 24°
2026-05-04 13:41 5.87837 -75.46209 32103 ft 478 kts 24°
2026-05-04 13:42 5.91848 -75.44488 32459 ft 477 kts 24°
2026-05-04 13:42 5.94894 -75.43179 32734 ft 476 kts 24°
2026-05-04 13:42 5.97936 -75.41875 33015 ft 475 kts 24°
2026-05-04 13:42 6.00959 -75.40530 33283 ft 475 kts 25°
2026-05-04 13:43 6.03950 -75.39119 33535 ft 474 kts 26°
2026-05-04 13:43 6.06912 -75.37669 33790 ft 474 kts 27°
2026-05-04 13:43 6.09830 -75.36216 34034 ft 474 kts 27°
2026-05-04 13:43 6.12809 -75.34715 34277 ft 473 kts 30°
2026-05-04 13:44 6.15526 -75.32935 34489 ft 471 kts 39°
2026-05-04 13:44 6.17939 -75.30722 34681 ft 469 kts 49°
2026-05-04 13:44 6.19959 -75.28158 34887 ft 467 kts 58°
2026-05-04 13:44 6.21613 -75.25349 35073 ft 466 kts 61°
2026-05-04 13:45 6.23214 -75.22514 35187 ft 466 kts 62°
2026-05-04 13:45 6.24806 -75.19686 35197 ft 465 kts 61°
2026-05-04 13:45 6.27983 -75.14033 35152 ft 464 kts 61°
2026-05-04 13:46 6.31167 -75.08381 35104 ft 465 kts 61°
2026-05-04 13:46 6.34352 -75.02727 35089 ft 465 kts 61°
2026-05-04 13:47 6.37532 -74.97073 35075 ft 465 kts 61°
2026-05-04 13:47 6.40711 -74.91415 35062 ft 465 kts 61°
2026-05-04 13:48 6.43893 -74.85763 35052 ft 465 kts 61°
2026-05-04 13:48 6.47083 -74.80106 35039 ft 465 kts 61°
2026-05-04 13:49 6.50261 -74.74449 35031 ft 464 kts 61°
2026-05-04 13:49 6.53429 -74.68791 35021 ft 464 kts 61°
2026-05-04 13:50 6.56601 -74.63140 35013 ft 464 kts 61°
2026-05-04 13:50 6.59780 -74.57487 35002 ft 464 kts 61°
2026-05-04 13:51 6.62956 -74.51828 34998 ft 464 kts 61°
2026-05-04 13:51 6.66125 -74.46174 34991 ft 464 kts 61°
2026-05-04 13:52 6.70888 -74.37702 34971 ft 463 kts 61°
2026-05-04 13:53 6.74046 -74.32052 34965 ft 463 kts 61°
2026-05-04 13:53 6.77208 -74.26407 34961 ft 463 kts 61°
2026-05-04 13:54 6.81943 -74.17939 34946 ft 463 kts 61°
2026-05-04 13:55 6.86663 -74.09522 34929 ft 463 kts 61°
2026-05-04 13:55 6.91405 -74.01057 34894 ft 462 kts 61°
2026-05-04 13:56 6.94559 -73.95419 34872 ft 462 kts 61°
2026-05-04 13:57 6.99292 -73.86950 34848 ft 463 kts 61°
2026-05-04 13:58 7.06092 -73.75955 34842 ft 464 kts 55°
2026-05-04 13:58 7.11690 -73.68002 34851 ft 464 kts 55°
2026-05-04 13:59 7.15430 -73.62686 34862 ft 465 kts 55°
2026-05-04 14:00 7.21035 -73.54698 34876 ft 466 kts 55°
2026-05-04 14:00 7.26623 -73.46729 34902 ft 467 kts 55°
2026-05-04 14:01 7.30367 -73.41386 34917 ft 467 kts 55°
2026-05-04 14:02 7.35995 -73.33361 34931 ft 467 kts 55°
2026-05-04 14:02 7.39748 -73.28011 34938 ft 467 kts 55°
2026-05-04 14:03 7.43503 -73.22663 34945 ft 468 kts 55°
2026-05-04 14:03 7.47253 -73.17306 34960 ft 468 kts 55°
2026-05-04 14:04 7.52882 -73.09276 34989 ft 468 kts 55°
2026-05-04 14:04 7.56633 -73.03922 35006 ft 467 kts 55°
2026-05-04 14:05 7.62248 -72.95880 35016 ft 467 kts 55°
2026-05-04 14:06 7.65987 -72.90524 35020 ft 467 kts 55°
2026-05-04 14:06 7.69725 -72.85172 35018 ft 467 kts 55°
2026-05-04 14:07 7.73465 -72.79824 35006 ft 466 kts 55°
2026-05-04 14:07 7.77203 -72.74477 34978 ft 466 kts 55°
2026-05-04 14:08 7.80939 -72.69136 34954 ft 466 kts 55°
2026-05-04 14:08 7.84677 -72.63781 34936 ft 466 kts 55°
2026-05-04 14:09 7.90271 -72.55746 34930 ft 467 kts 55°
2026-05-04 14:10 7.97421 -72.49274 34927 ft 467 kts 27°
2026-05-04 14:10 8.03210 -72.46311 34927 ft 467 kts 27°
2026-05-04 14:11 8.09014 -72.43338 34926 ft 468 kts 27°
2026-05-04 14:11 8.17720 -72.38862 34924 ft 468 kts 26°
2026-05-04 14:12 8.23514 -72.35848 34919 ft 468 kts 28°
2026-05-04 14:13 8.32057 -72.31037 34913 ft 469 kts 29°
2026-05-04 14:13 8.37737 -72.27797 34912 ft 469 kts 28°
2026-05-04 14:14 8.43436 -72.24607 34913 ft 468 kts 28°
2026-05-04 14:14 8.51998 -72.19850 34909 ft 468 kts 28°
2026-05-04 14:15 8.63388 -72.13467 34899 ft 468 kts 28°
2026-05-04 14:16 8.71923 -72.08690 34895 ft 467 kts 28°
2026-05-04 14:17 8.80452 -72.03917 34679 ft 468 kts 28°
2026-05-04 14:17 8.86159 -72.00716 32638 ft 472 kts 28°
2026-05-04 14:18 8.89045 -71.99095 31725 ft 477 kts 28°
2026-05-04 14:18 8.93923 -71.96361 30130 ft 486 kts 28°
2026-05-04 14:19 9.00219 -71.93806 27938 ft 491 kts 12°
2026-05-04 14:19 9.03594 -71.93228 26857 ft 493 kts
2026-05-04 14:19 9.06997 -71.92742 25802 ft 495 kts
2026-05-04 14:19 9.10400 -71.92256 25011 ft 492 kts
2026-05-04 14:20 9.13773 -71.91774 24247 ft 488 kts
2026-05-04 14:20 9.17125 -71.91296 23504 ft 485 kts
2026-05-04 14:20 9.20463 -71.90820 22731 ft 481 kts
2026-05-04 14:21 9.26998 -71.89886 21334 ft 468 kts
2026-05-04 14:21 9.30204 -71.89426 20672 ft 462 kts
2026-05-04 14:21 9.33369 -71.88971 20031 ft 457 kts
2026-05-04 14:21 9.36499 -71.88520 19402 ft 452 kts 10°
2026-05-04 14:22 9.39591 -71.88076 18792 ft 447 kts 10°
2026-05-04 14:22 9.42653 -71.87636 18196 ft 442 kts 10°
2026-05-04 14:22 9.45676 -71.87200 17582 ft 436 kts 11°
2026-05-04 14:22 9.48653 -71.86770 17043 ft 428 kts 11°
2026-05-04 14:23 9.54460 -71.85938 16022 ft 415 kts 11°
2026-05-04 14:23 9.57298 -71.85529 15516 ft 409 kts 11°
2026-05-04 14:23 9.60098 -71.85124 15021 ft 404 kts 11°
2026-05-04 14:24 9.62864 -71.84725 14517 ft 400 kts 11°
2026-05-04 14:24 9.65603 -71.84330 14015 ft 396 kts 11°
2026-05-04 14:24 9.68322 -71.83938 13455 ft 393 kts 11°
2026-05-04 14:24 9.71022 -71.83549 12915 ft 390 kts 11°
2026-05-04 14:25 9.73696 -71.83165 12356 ft 387 kts 11°
2026-05-04 14:25 9.79001 -71.82401 11216 ft 383 kts 10°
2026-05-04 14:25 9.81604 -71.82025 10984 ft 368 kts 10°
2026-05-04 14:26 9.84032 -71.81680 10799 ft 337 kts 10°
2026-05-04 14:26 9.86257 -71.81367 10579 ft 311 kts 10°
2026-05-04 14:26 9.88365 -71.81068 10164 ft 303 kts 10°
2026-05-04 14:26 9.90441 -71.80767 9928 ft 299 kts 11°
2026-05-04 14:27 9.92498 -71.80467 9814 ft 298 kts 10°
2026-05-04 14:27 9.94555 -71.80182 9684 ft 298 kts 10°
2026-05-04 14:27 9.96610 -71.79906 9560 ft 298 kts 10°
2026-05-04 14:27 9.98662 -71.79637 9431 ft 297 kts
2026-05-04 14:28 10.00710 -71.79372 9309 ft 297 kts
2026-05-04 14:28 10.02755 -71.79105 9175 ft 296 kts
2026-05-04 14:28 10.04799 -71.78836 8850 ft 295 kts
2026-05-04 14:28 10.06828 -71.78568 8470 ft 293 kts
2026-05-04 14:29 10.10857 -71.78037 7717 ft 291 kts
2026-05-04 14:29 10.14852 -71.77510 6972 ft 288 kts
2026-05-04 14:30 10.16835 -71.77248 6599 ft 287 kts
2026-05-04 14:30 10.18813 -71.76986 6212 ft 286 kts
2026-05-04 14:30 10.22741 -71.76466 5460 ft 283 kts
2026-05-04 14:31 10.24662 -71.76230 5113 ft 281 kts
2026-05-04 14:31 10.28557 -71.76502 4278 ft 280 kts 355°
2026-05-04 14:32 10.32386 -71.76886 3416 ft 275 kts 356°
2026-05-04 14:32 10.34286 -71.77077 3017 ft 272 kts 356°
2026-05-04 14:32 10.36133 -71.77261 2835 ft 262 kts 356°
2026-05-04 14:32 10.37907 -71.77435 2739 ft 251 kts 356°
2026-05-04 14:33 10.39609 -71.77600 2639 ft 241 kts 356°
2026-05-04 14:33 10.41239 -71.77757 2553 ft 228 kts 356°
2026-05-04 14:33 10.42783 -71.77907 2436 ft 218 kts 357°
2026-05-04 14:33 10.44206 -71.77792 2307 ft 194 kts 17°
2026-05-04 14:34 10.45395 -71.77329 2101 ft 173 kts 25°
2026-05-04 14:34 10.46468 -71.76873 1905 ft 158 kts 25°
2026-05-04 14:34 10.47454 -71.76453 1692 ft 150 kts 24°
2026-05-04 14:34 10.48401 -71.76050 1490 ft 148 kts 24°
2026-05-04 14:35 10.49347 -71.75647 1309 ft 147 kts 24°
2026-05-04 14:35 10.50287 -71.75247 1127 ft 147 kts 24°
2026-05-04 14:35 10.51227 -71.74847 941 ft 146 kts 25°
2026-05-04 14:35 10.52171 -71.74445 771 ft 149 kts 24°
2026-05-04 14:36 10.53112 -71.74044 531 ft 145 kts 25°
2026-05-04 14:36 10.54042 -71.73646 373 ft 145 kts 25°
2026-05-04 14:36 10.54959 -71.73258 242 ft 137 kts 24°
2026-05-04 14:36 10.55727 -71.72932 236 ft 87 kts 22°
2026-05-04 14:37 10.56102 -71.72773 238 ft 50 kts 22°
2026-05-04 14:37 10.56346 -71.72669 241 ft 22 kts 30°
2026-05-04 14:37 10.56409 -71.72614 242 ft 6 kts 49°
2026-05-04 14:37 10.56437 -71.72578 241 ft 7 kts 53°
2026-05-04 14:38 10.56467 -71.72538 239 ft 8 kts 52°
2026-05-04 14:38 10.56505 -71.72488 238 ft 10 kts 54°
2026-05-04 14:38 10.56545 -71.72433 237 ft 9 kts 53°
2026-05-04 14:38 10.56563 -71.72387 238 ft 4 kts 133°
2026-05-04 14:39 10.56522 -71.72396 239 ft 13 kts 199°
2026-05-04 14:39 10.56393 -71.72450 237 ft 23 kts 203°
2026-05-04 14:39 10.56280 -71.72498 234 ft 14 kts 202°
2026-05-04 14:40 10.56088 -71.72578 230 ft 15 kts 202°
2026-05-04 14:40 10.56015 -71.72584 229 ft 10 kts 149°
2026-05-04 14:40 10.55979 -71.72526 230 ft 9 kts 114°
2026-05-04 14:40 10.55955 -71.72472 232 ft 8 kts 114°
2026-05-04 14:41 10.55928 -71.72437 231 ft 5 kts 158°
2026-05-04 14:41 10.55882 -71.72445 230 ft 8 kts 201°
2026-05-04 14:41 10.55787 -71.72485 229 ft 7 kts 204°
2026-05-04 14:42 10.55700 -71.72527 230 ft 7 kts 204°
2026-05-04 14:42 10.55660 -71.72538 228 ft 6 kts 167°
2026-05-04 14:42 10.55629 -71.72520 228 ft 5 kts 154°
2026-05-04 14:43 10.55601 -71.72519 228 ft 4 kts 189°
2026-05-04 14:43 10.55579 -71.72523 229 ft 2 kts 193°
2026-05-04 14:43 10.55576 -71.72523 229 ft 0 kts 193°